When you browse on this site, cookies collect data to enhance your experience and personalize the content and advertising you see.
Visit our Privacy Policy to learn more. By continuing to use the site, you agree to this use of cookies and data.
  • In United Kingdom
  • List of Countries
  • For 7 days
  • Water Temperature
  • Satellite Maps
  • Weather Map
  • Weather Widgets
  • user-avatar
    Login

    Hourly Weather Mohale's Hoek

    Today, 21 February, Thursday

    Time Temperature Precipitation Wind Pressure Humidity
    00:00 +19°C° 0 mm 1 mps 633 mmHg 32%
    01:00 +19°C° 0 mm 1 mps 633 mmHg 35%
    02:00 +18°C° 0 mm 1 mps 633 mmHg 44%
    03:00 +16°C° 0 mm 1 mps 633 mmHg 48%
    04:00 +16°C° 0 mm 1 mps 633 mmHg 53%
    05:00 +16°C° 0 mm 1 mps 633 mmHg 58%
    06:00 +19°C° 0 mm 1 mps 634 mmHg 53%
    07:00 +21°C° 0 mm 1 mps 635 mmHg 49%
    08:00 +23°C° 0 mm 1 mps 636 mmHg 44%
    09:00 +25°C° 0 mm 1 mps 636 mmHg 35%
    10:00 +27°C° 0 mm 2 mps 637 mmHg 26%
    11:00 +29°C° 0 mm 2 mps 637 mmHg 18%
    12:00 +30°C° 0 mm 2 mps 637 mmHg 16%
    13:00 +31°C° 0 mm 3 mps 637 mmHg 15%
    14:00 +30°C° 0 mm 3 mps 637 mmHg 15%
    15:00 +30°C° 0 mm 3 mps 637 mmHg 15%
    16:00 +30°C° 0 mm 4 mps 637 mmHg 16%
    17:00 +30°C° 0 mm 4 mps 637 mmHg 16%
    18:00 +28°C° 0 mm 3 mps 636 mmHg 22%
    19:00 +25°C° 0 mm 2 mps 635 mmHg 28%
    20:00 +22°C° 0 mm 1 mps 635 mmHg 34%
    21:00 +21°C° 0 mm 2 mps 635 mmHg 41%
    22:00 +20°C° 0 mm 2 mps 635 mmHg 48%
    23:00 +19°C° 0 mm 2 mps 635 mmHg 54%

    Tomorrow, 22 February, Friday

    Time Temperature Precipitation Wind Pressure Humidity
    00:00 +19°C° 0 mm 2 mps 635 mmHg 59%
    01:00 +18°C° 0 mm 2 mps 635 mmHg 64%
    02:00 +18°C° 0 mm 2 mps 634 mmHg 70%
    03:00 +17°C° 0 mm 2 mps 634 mmHg 73%
    04:00 +17°C° 0 mm 2 mps 634 mmHg 76%
    05:00 +16°C° 0 mm 1 mps 634 mmHg 79%
    06:00 +19°C° 0 mm 1 mps 634 mmHg 71%
    07:00 +19°C° 0 mm 2 mps 635 mmHg 63%
    08:00 +21°C° 0 mm 2 mps 635 mmHg 55%
    09:00 +24°C° 0 mm 2 mps 636 mmHg 46%
    10:00 +27°C° 0 mm 3 mps 636 mmHg 36%
    11:00 +29°C° 0 mm 4 mps 637 mmHg 26%
    12:00 +29°C° 0 mm 5 mps 636 mmHg 27%
    13:00 +29°C° 0 mm 5 mps 635 mmHg 28%
    14:00 +29°C° 0 mm 6 mps 635 mmHg 29%
    15:00 +29°C° 0.4 mm 5 mps 634 mmHg 31%
    16:00 +28°C° 0.4 mm 4 mps 634 mmHg 33%
    17:00 +28°C° 0.4 mm 3 mps 634 mmHg 35%
    18:00 +26°C° 0 mm 2 mps 633 mmHg 39%
    19:00 +25°C° 0 mm 2 mps 632 mmHg 43%
    20:00 +23°C° 0 mm 1 mps 632 mmHg 47%
    21:00 +21°C° 0 mm 2 mps 631 mmHg 50%
    22:00 +20°C° 0 mm 2 mps 631 mmHg 54%
    23:00 +20°C° 0 mm 2 mps 631 mmHg 57%

    Day after tomorrow, 23 February, Saturday

    Time Temperature Precipitation Wind Pressure Humidity
    00:00 +19°C° 0 mm 2 mps 631 mmHg 58%
    01:00 +19°C° 0 mm 2 mps 630 mmHg 59%
    02:00 +18°C° 0 mm 2 mps 630 mmHg 61%
    03:00 +18°C° 0 mm 1 mps 629 mmHg 61%
    04:00 +18°C° 0 mm 1 mps 629 mmHg 60%
    05:00 +16°C° 0 mm 1 mps 629 mmHg 60%
    06:00 +19°C° 0 mm 1 mps 630 mmHg 54%
    07:00 +21°C° 0 mm 1 mps 631 mmHg 48%
    08:00 +23°C° 0 mm 1 mps 632 mmHg 41%
    09:00 +25°C° 0 mm 2 mps 632 mmHg 36%
    10:00 +27°C° 0 mm 2 mps 632 mmHg 31%
    11:00 +29°C° 0 mm 3 mps 633 mmHg 27%
    12:00 +30°C° 0 mm 4 mps 633 mmHg 25%
    13:00 +32°C° 0 mm 5 mps 633 mmHg 23%
    14:00 +33°C° 0 mm 7 mps 632 mmHg 21%
    15:00 +32°C° 0 mm 7 mps 632 mmHg 23%
    16:00 +30°C° 0 mm 6 mps 632 mmHg 24%
    17:00 +29°C° 0 mm 6 mps 631 mmHg 26%
    18:00 +27°C° 0 mm 5 mps 631 mmHg 30%
    19:00 +25°C° 0 mm 3 mps 631 mmHg 34%
    20:00 +23°C° 0 mm 2 mps 631 mmHg 38%
    21:00 +21°C° 0 mm 2 mps 631 mmHg 43%
    22:00 +20°C° 0 mm 2 mps 631 mmHg 47%
    23:00 +19°C° 0 mm 3 mps 631 mmHg 52%

    24 February, Sunday

    Time Temperature Precipitation Wind Pressure Humidity
    00:00 +19°C° 0 mm 2 mps 631 mmHg 56%
    01:00 +18°C° 0 mm 2 mps 630 mmHg 61%
    02:00 +17°C° 0 mm 2 mps 630 mmHg 65%
    03:00 +17°C° 0 mm 2 mps 630 mmHg 67%
    04:00 +16°C° 0 mm 1 mps 629 mmHg 68%
    05:00 +16°C° 0 mm 1 mps 629 mmHg 70%
    06:00 +19°C° 0 mm 1 mps 630 mmHg 61%
    07:00 +21°C° 0 mm 1 mps 631 mmHg 53%
    08:00 +23°C° 0 mm 1 mps 632 mmHg 45%
    09:00 +25°C° 0 mm 1 mps 632 mmHg 39%
    10:00 +26°C° 0 mm 2 mps 633 mmHg 33%
    11:00 +28°C° 0 mm 2 mps 633 mmHg 28%
    12:00 +29°C° 0 mm 3 mps 633 mmHg 26%
    13:00 +30°C° 0 mm 3 mps 633 mmHg 24%
    14:00 +32°C° 0 mm 4 mps 632 mmHg 23%
    15:00 +32°C° 0 mm 4 mps 632 mmHg 23%
    16:00 +30°C° 0 mm 4 mps 632 mmHg 24%
    17:00 +30°C° 0 mm 3 mps 632 mmHg 25%
    18:00 +27°C° 1.2 mm 4 mps 631 mmHg 39%
    19:00 +23°C° 1.2 mm 4 mps 631 mmHg 54%
    20:00 +20°C° 1.2 mm 4 mps 631 mmHg 68%
    21:00 +20°C° 0.1 mm 3 mps 631 mmHg 69%
    22:00 +19°C° 0.1 mm 3 mps 631 mmHg 69%
    23:00 +19°C° 0.1 mm 3 mps 632 mmHg 70%

    25 February, Monday

    Time Temperature Precipitation Wind Pressure Humidity
    00:00 +18°C° 0 mm 2 mps 631 mmHg 72%
    01:00 +17°C° 0 mm 2 mps 631 mmHg 74%
    02:00 +18°C° 0 mm 1 mps 630 mmHg 77%
    03:00 +16°C° 0 mm 1 mps 630 mmHg 77%
    04:00 +16°C° 0 mm 1 mps 630 mmHg 78%
    05:00 +16°C° 0 mm 1 mps 630 mmHg 78%
    06:00 +18°C° 0.1 mm 1 mps 631 mmHg 72%
    07:00 +20°C° 0.1 mm 1 mps 632 mmHg 65%
    08:00 +21°C° 0.1 mm 1 mps 633 mmHg 59%
    09:00 +23°C° 0 mm 1 mps 633 mmHg 52%
    10:00 +25°C° 0 mm 1 mps 633 mmHg 44%
    11:00 +27°C° 0 mm 1 mps 634 mmHg 37%
    12:00 +27°C° 0 mm 2 mps 633 mmHg 36%
    13:00 +28°C° 0 mm 2 mps 633 mmHg 35%
    14:00 +28°C° 0 mm 2 mps 633 mmHg 33%
    15:00 +28°C° 0.2 mm 2 mps 632 mmHg 34%
    16:00 +28°C° 0.2 mm 2 mps 632 mmHg 35%
    17:00 +28°C° 0.2 mm 2 mps 632 mmHg 36%
    18:00 +26°C° 0.1 mm 2 mps 632 mmHg 42%
    19:00 +24°C° 0.1 mm 2 mps 632 mmHg 49%
    20:00 +21°C° 0.1 mm 2 mps 631 mmHg 55%
    21:00 +20°C° 0 mm 2 mps 631 mmHg 59%
    22:00 +20°C° 0 mm 2 mps 631 mmHg 62%
    23:00 +19°C° 0 mm 2 mps 631 mmHg 65%

    26 February, Tuesday

    Time Temperature Precipitation Wind Pressure Humidity
    00:00 +18°C° 0.4 mm 2 mps 631 mmHg 68%
    01:00 +19°C° 0.4 mm 1 mps 631 mmHg 71%
    02:00 +18°C° 0.4 mm 1 mps 631 mmHg 74%
    03:00 +18°C° 0.4 mm 1 mps 631 mmHg 75%
    04:00 +18°C° 0.4 mm 1 mps 631 mmHg 76%
    05:00 +16°C° 0.4 mm 1 mps 630 mmHg 77%
    06:00 +17°C° 0.1 mm 0 mps 631 mmHg 71%
    07:00 +18°C° 0.1 mm 0 mps 632 mmHg 65%
    08:00 +19°C° 0.1 mm 0 mps 632 mmHg 58%
    09:00 +23°C° 0.1 mm 1 mps 633 mmHg 52%
    10:00 +25°C° 0.1 mm 1 mps 633 mmHg 46%
    11:00 +26°C° 0.1 mm 1 mps 633 mmHg 39%
    12:00 +27°C° 0 mm 2 mps 633 mmHg 36%
    13:00 +28°C° 0 mm 3 mps 632 mmHg 33%
    14:00 +29°C° 0 mm 3 mps 632 mmHg 29%
    15:00 +28°C° 0 mm 3 mps 632 mmHg 30%
    16:00 +28°C° 0 mm 2 mps 632 mmHg 31%
    17:00 +28°C° 0 mm 1 mps 631 mmHg 32%
    18:00 +26°C° 0 mm 1 mps 631 mmHg 36%
    19:00 +25°C° 0 mm 2 mps 631 mmHg 40%
    20:00 +23°C° 0 mm 2 mps 631 mmHg 44%
    21:00 +21°C° 0.1 mm 2 mps 631 mmHg 51%
    22:00 +20°C° 0.1 mm 2 mps 631 mmHg 57%
    23:00 +19°C° 0.1 mm 2 mps 631 mmHg 64%
    Show more